Date Time,Air Temp,Sky Temp,Clarity,Light Level,Rain Sensor,Readings
2010-03-01 00:00:05,15.9,-26.2,42.1,1.1,2.1,112
2010-03-01 00:05:05,15.8,-26.6,42.4,1.1,2.1,111
2010-03-01 00:10:05,15.7,-26.6,42.3,1.1,2.2,111
2010-03-01 00:15:05,15.7,-26.5,42.3,1.1,2.3,112
2010-03-01 00:20:05,15.8,-26.0,41.8,1.2,2.3,111
2010-03-01 00:25:05,15.8,-25.4,41.2,1.2,2.4,111
2010-03-01 00:30:05,15.7,-25.0,40.7,1.1,2.4,112
2010-03-01 00:35:05,15.6,-24.9,40.5,1.1,2.4,111
2010-03-01 00:40:05,15.6,-24.6,40.2,1.0,2.4,112
2010-03-01 00:45:05,15.6,-24.6,40.2,1.1,2.4,111
2010-03-01 00:50:05,15.7,-24.5,40.2,1.0,2.4,111
2010-03-01 00:55:05,15.6,-24.8,40.4,1.1,2.3,112
2010-03-01 01:00:05,15.7,-25.1,40.8,1.0,2.3,111
2010-03-01 01:05:05,15.7,-25.6,41.4,1.1,2.3,112
2010-03-01 01:10:05,15.8,-25.9,41.7,1.1,2.3,111
2010-03-01 01:15:05,15.7,-26.9,42.6,1.1,2.3,111
2010-03-01 01:20:05,15.7,-27.3,42.9,1.2,2.4,112
2010-03-01 01:25:05,15.6,-27.8,43.4,1.2,2.3,111
2010-03-01 01:30:05,15.4,-28.3,43.8,1.3,2.3,112
2010-03-01 01:35:05,15.4,-28.8,44.2,1.3,2.3,111
2010-03-01 01:40:05,15.3,-28.9,44.2,1.3,2.3,112
2010-03-01 01:45:05,15.2,-28.9,44.0,1.3,2.3,111
2010-03-01 01:50:05,15.1,-29.1,44.2,1.2,2.3,111
2010-03-01 01:55:05,15.1,-29.2,44.2,1.3,2.3,112
2010-03-01 02:00:05,15.0,-28.6,43.7,1.3,2.3,111
2010-03-01 02:05:05,15.1,-29.2,44.3,1.3,2.3,112
2010-03-01 02:10:05,15.2,-29.0,44.3,1.3,2.3,111
2010-03-01 02:15:05,15.3,-28.7,44.0,1.3,2.3,112
2010-03-01 02:20:05,15.3,-28.5,43.8,1.2,2.3,111
2010-03-01 02:25:05,15.2,-28.9,44.2,1.2,2.3,112
2010-03-01 02:30:05,15.2,-29.5,44.7,1.2,2.3,111
2010-03-01 02:35:05,15.2,-29.6,44.7,1.2,2.3,112
2010-03-01 02:40:05,15.1,-29.6,44.7,1.2,2.3,111
2010-03-01 02:45:05,15.1,-29.6,44.6,1.2,2.3,112
2010-03-01 02:50:05,15.0,-29.6,44.6,1.2,2.3,112
2010-03-01 02:55:05,15.0,-29.6,44.6,1.2,2.3,112
2010-03-01 03:00:05,15.0,-29.9,44.9,1.2,2.3,111
2010-03-01 03:05:05,15.0,-30.1,45.1,1.2,2.3,111
2010-03-01 03:10:05,15.1,-30.0,45.0,1.2,2.3,112
2010-03-01 03:15:05,15.2,-29.7,44.9,1.2,2.3,111
2010-03-01 03:20:05,15.2,-29.7,44.9,1.2,2.3,112
2010-03-01 03:25:05,15.2,-29.5,44.8,1.1,2.3,111
2010-03-01 03:30:05,15.1,-29.4,44.5,1.1,2.3,111
2010-03-01 03:35:05,15.0,-29.6,44.6,1.1,2.3,112
2010-03-01 03:40:05,15.1,-29.6,44.6,1.1,2.3,111
2010-03-01 03:45:05,15.0,-29.6,44.6,1.1,2.3,111
2010-03-01 03:50:05,15.0,-29.7,44.7,1.1,2.3,112
2010-03-01 03:55:05,15.0,-29.8,44.8,1.0,2.3,111
2010-03-01 04:00:05,15.1,-29.7,44.8,1.0,2.3,112
2010-03-01 04:05:05,15.2,-29.4,44.6,1.0,2.3,111
2010-03-01 04:10:05,15.1,-29.5,44.6,1.0,2.3,112
2010-03-01 04:15:05,15.1,-29.4,44.5,1.0,2.3,111
2010-03-01 04:20:05,15.1,-29.4,44.5,0.9,2.3,111
2010-03-01 04:25:05,15.1,-29.2,44.4,0.9,2.3,111
2010-03-01 04:30:05,15.1,-29.2,44.3,0.9,2.3,112
2010-03-01 04:35:05,15.1,-29.0,44.1,0.9,2.3,111
2010-03-01 04:40:05,15.1,-28.9,44.0,0.9,2.3,112
2010-03-01 04:45:05,15.1,-28.8,43.9,0.8,2.3,111
2010-03-01 04:50:05,15.0,-28.9,43.9,0.8,2.3,111
2010-03-01 04:55:05,15.0,-29.0,44.0,0.8,2.3,112
2010-03-01 05:00:05,14.9,-28.9,43.9,0.8,2.3,111
2010-03-01 05:05:05,15.0,-28.8,43.8,0.7,2.3,111
2010-03-01 05:10:05,15.1,-28.7,43.8,0.7,2.3,111
2010-03-01 05:15:05,15.1,-28.6,43.7,0.7,2.3,112
2010-03-01 05:20:05,15.1,-28.7,43.7,0.6,2.3,111
2010-03-01 05:25:05,15.0,-28.7,43.7,0.6,2.3,111
2010-03-01 05:30:05,15.1,-28.6,43.6,0.6,2.3,112
2010-03-01 05:35:05,15.1,-28.6,43.7,0.5,2.3,111
2010-03-01 05:40:05,15.1,-28.7,43.9,0.5,2.3,111
2010-03-01 05:45:05,15.3,-28.6,43.9,0.5,2.3,111
2010-03-01 05:50:05,15.4,-28.7,44.0,0.5,2.3,111
2010-03-01 05:55:05,15.4,-29.3,44.7,0.5,2.3,112
2010-03-01 06:00:05,15.4,-28.6,44.0,0.7,2.3,111
2010-03-01 06:05:05,15.4,-29.2,44.5,1.1,2.3,112
2010-03-01 06:10:05,15.3,-28.9,44.2,2.0,2.3,111
2010-03-01 06:15:05,15.1,-29.1,44.2,3.8,2.3,111
2010-03-01 06:20:05,15.1,-29.1,44.2,7.3,2.3,111
2010-03-01 06:25:05,15.1,-29.2,44.2,12.7,2.3,112
2010-03-01 06:30:05,15.1,-29.2,44.3,18.9,2.3,111
2010-03-01 06:35:05,15.2,-29.0,44.2,24.1,2.3,111
2010-03-01 06:40:05,15.2,-28.9,44.1,27.5,2.3,112
2010-03-01 06:45:05,15.2,-28.8,44.0,29.5,2.3,111
2010-03-01 06:50:05,15.2,-28.7,43.8,30.6,2.3,111
2010-03-01 06:55:05,15.2,-28.6,43.8,31.2,2.3,112
2010-03-01 07:00:05,15.2,-28.4,43.6,31.5,2.3,111
2010-03-01 07:05:05,15.2,-28.2,43.4,31.8,2.3,111
2010-03-01 07:10:05,15.3,-28.1,43.4,31.9,2.3,111
2010-03-01 07:15:05,15.4,-27.9,43.3,32.0,2.3,111
2010-03-01 07:20:05,15.6,-27.7,43.3,32.1,2.3,112
2010-03-01 07:25:05,15.8,-27.1,42.9,32.1,2.3,111
2010-03-01 07:30:05,16.0,-25.6,41.7,32.2,2.4,112
2010-03-01 07:35:05,16.3,-25.7,42.0,32.2,2.2,111
2010-03-01 07:40:05,16.4,-26.3,42.7,32.2,2.2,112
2010-03-01 07:45:05,16.6,-27.6,44.1,32.3,2.2,111
2010-03-01 07:50:05,16.3,-27.9,44.3,32.3,2.2,112
2010-03-01 07:55:05,16.0,-27.8,43.9,32.3,2.3,111
2010-03-01 08:00:05,16.7,-27.7,44.4,32.3,2.3,112
2010-03-01 08:05:05,16.8,-27.6,44.4,32.3,2.3,112
2010-03-01 08:10:05,16.8,-27.6,44.4,32.3,2.2,112
2010-03-01 08:15:05,16.8,-27.6,44.4,32.3,2.2,111
2010-03-01 08:20:05,16.8,-27.6,44.4,32.3,2.2,111
2010-03-01 08:25:05,16.6,-27.8,44.3,32.3,2.2,112
2010-03-01 08:30:05,17.0,-27.5,44.5,32.3,2.3,111
2010-03-01 08:35:05,16.9,-27.7,44.7,32.3,2.3,112
2010-03-01 08:40:05,16.9,-27.8,44.7,32.4,2.3,111
2010-03-01 08:45:05,16.9,-28.2,45.0,32.4,2.4,111
2010-03-01 08:50:05,16.9,-27.8,44.8,32.4,2.4,112
2010-03-01 08:55:05,17.0,-27.8,44.8,32.4,2.4,111
2010-03-01 09:00:05,17.2,-28.2,45.4,32.4,2.6,112
2010-03-01 09:05:05,17.5,-27.9,45.4,32.4,2.5,111
2010-03-01 09:10:05,17.7,-27.4,45.2,32.4,2.3,112
2010-03-01 09:15:05,17.5,-27.3,44.8,32.4,2.3,111
2010-03-01 09:20:05,18.0,-27.0,44.9,32.4,2.3,112
2010-03-01 09:25:05,18.2,-26.8,44.9,32.4,2.3,111
2010-03-01 09:30:05,18.3,-26.7,45.0,32.4,2.3,112
2010-03-01 09:35:05,18.4,-26.7,45.1,32.4,2.3,112
2010-03-01 09:40:05,18.5,-26.8,45.3,32.4,2.2,111
2010-03-01 09:45:05,18.6,-26.7,45.3,32.4,1.9,111
2010-03-01 09:50:05,18.7,-26.5,45.2,32.4,1.8,112
2010-03-01 09:55:05,18.8,-25.8,44.5,32.4,1.9,111
2010-03-01 10:00:05,19.0,-24.3,43.3,32.5,2.2,111
2010-03-01 10:05:05,19.8,-23.9,43.8,32.5,2.4,112
2010-03-01 10:10:05,21.4,-23.1,44.5,32.6,2.3,111
2010-03-01 10:15:05,23.1,-23.3,46.3,32.6,2.3,112
2010-03-01 10:20:05,23.7,-24.3,48.1,32.6,2.3,111
2010-03-01 10:25:05,23.6,-24.4,48.0,32.6,2.3,112
2010-03-01 10:30:05,23.6,-24.2,47.8,32.6,2.3,112
2010-03-01 10:35:05,23.7,-23.7,47.4,32.6,2.3,111
2010-03-01 10:40:05,23.7,-24.5,48.3,32.6,2.3,111
2010-03-01 10:45:05,23.5,-24.6,48.1,32.6,2.3,112
2010-03-01 10:50:05,23.5,-24.7,48.2,32.6,2.3,111
2010-03-01 10:55:05,23.5,-24.7,48.3,32.6,2.3,112
2010-03-01 11:00:05,23.5,-23.7,47.2,32.6,2.3,111
2010-03-01 11:05:05,23.9,-22.5,46.4,32.6,2.2,112
2010-03-01 11:10:05,24.1,-22.4,46.5,32.6,2.3,111
2010-03-01 11:15:05,24.5,-23.3,47.8,32.6,2.3,112
2010-03-01 11:20:05,24.6,-22.4,47.0,32.6,2.4,111
2010-03-01 11:25:05,24.7,-20.2,44.9,32.6,2.3,112
2010-03-01 11:30:05,25.1,-18.9,43.9,32.6,2.3,111
2010-03-01 11:35:05,25.4,-16.5,41.9,32.6,2.3,112
2010-03-01 11:40:05,25.6,-17.3,42.9,32.6,2.3,112
2010-03-01 11:45:05,25.6,-16.9,42.5,32.6,2.3,111
2010-03-01 11:50:05,25.9,-18.0,43.9,32.6,2.3,112
2010-03-01 11:55:05,25.7,-24.3,50.0,32.6,2.3,112
2010-03-01 12:00:05,24.7,-22.0,46.7,32.6,2.3,111
2010-03-01 12:05:05,25.1,-22.1,47.2,32.6,2.3,112
2010-03-01 12:10:05,25.3,-22.4,47.7,32.6,2.3,111
2010-03-01 12:15:05,25.2,-21.2,46.4,32.6,2.3,112
2010-03-01 12:20:05,25.8,-20.1,45.9,32.6,2.3,111
2010-03-01 12:25:05,26.1,-22.3,48.4,32.6,2.3,112
2010-03-01 12:30:05,26.0,-21.5,47.5,32.6,2.3,111
2010-03-01 12:35:05,26.0,-20.6,46.6,32.6,2.3,111
2010-03-01 12:40:05,26.2,-21.1,47.3,32.6,2.3,112
2010-03-01 12:45:05,26.6,-20.3,46.9,32.6,2.3,112
2010-03-01 12:50:05,26.8,-19.6,46.4,32.6,2.3,111
2010-03-01 12:55:05,27.0,-20.4,47.4,32.6,2.3,112
2010-03-01 13:00:05,26.4,-22.8,49.1,32.6,2.3,111
2010-03-01 13:05:05,25.0,-21.9,46.9,32.6,2.3,112
2010-03-01 13:10:05,24.5,-21.2,45.7,32.6,2.3,111
2010-03-01 13:15:05,25.1,-19.7,44.8,32.6,2.3,112
2010-03-01 13:20:05,25.8,-19.9,45.7,32.6,2.3,112
2010-03-01 13:25:05,26.4,-19.6,46.0,32.6,2.3,111
2010-03-01 13:30:05,25.9,-18.3,44.2,32.6,2.3,112
2010-03-01 13:35:05,26.1,-15.1,41.3,32.6,2.3,111
2010-03-01 13:40:05,27.3,-16.2,43.6,32.6,2.3,112
2010-03-01 13:45:05,28.2,-16.4,44.6,32.6,2.3,111
2010-03-01 13:50:05,28.3,-18.7,47.0,32.6,2.3,112
2010-03-01 13:55:05,28.0,-20.2,48.2,32.6,2.3,111
2010-03-01 14:00:05,27.7,-20.7,48.4,32.6,2.3,111
2010-03-01 14:05:05,27.4,-19.3,46.7,32.6,2.3,112
2010-03-01 14:10:05,27.1,-17.8,44.9,32.6,2.3,112
2010-03-01 14:15:05,27.1,-16.8,43.8,32.6,2.3,111
2010-03-01 14:20:05,26.9,-20.7,47.6,32.5,2.3,112
2010-03-01 14:25:05,25.3,-20.9,46.2,32.5,2.3,112
2010-03-01 14:30:05,24.1,-20.5,44.6,32.5,2.3,111
2010-03-01 14:35:05,23.3,-19.7,43.0,32.5,2.3,112
2010-03-01 14:40:05,23.0,-18.7,41.7,32.5,2.3,111
2010-03-01 14:45:05,23.8,-18.1,41.9,32.6,2.3,112
2010-03-01 14:50:05,24.1,-18.6,42.7,32.5,2.3,112
2010-03-01 14:55:05,24.5,-15.8,40.3,32.6,2.3,111
2010-03-01 15:00:05,25.1,-15.0,40.1,32.6,2.3,112
2010-03-01 15:05:05,25.2,-13.6,38.8,32.5,2.3,111
2010-03-01 15:10:05,24.6,-12.9,37.4,32.5,2.3,112
2010-03-01 15:15:05,24.0,-14.9,38.8,32.5,2.3,111
2010-03-01 15:20:05,23.5,-17.6,41.1,32.5,2.3,112
2010-03-01 15:25:05,23.2,-18.0,41.2,32.5,2.3,112
2010-03-01 15:30:05,23.1,-17.5,40.7,32.5,2.2,111
2010-03-01 15:35:05,23.0,-13.6,36.6,32.5,2.1,111
2010-03-01 15:40:05,23.0,-11.2,34.2,32.5,2.1,112
2010-03-01 15:45:05,22.5,-16.4,38.9,32.5,2.2,112
2010-03-01 15:50:05,21.7,-17.0,38.7,32.5,2.3,111
2010-03-01 15:55:05,21.3,-15.7,37.0,32.4,2.3,112
2010-03-01 16:00:05,21.1,-15.5,36.6,32.4,2.3,112
2010-03-01 16:05:05,21.0,-15.3,36.3,32.4,2.3,111
2010-03-01 16:10:05,20.9,-13.3,34.2,32.4,2.3,112
2010-03-01 16:15:05,20.9,-13.6,34.5,32.4,2.3,111
2010-03-01 16:20:05,20.9,-12.9,33.8,32.4,2.3,112
2010-03-01 16:25:05,20.9,-10.0,30.9,32.4,2.3,112
2010-03-01 16:30:05,20.8,-7.1,27.9,32.4,2.3,111
2010-03-01 16:35:05,20.9,-4.7,25.6,32.4,2.3,112
2010-03-01 16:40:05,21.2,-7.0,28.1,32.4,2.3,111
2010-03-01 16:45:05,21.2,-7.8,29.0,32.3,2.3,112
2010-03-01 16:50:05,21.3,-4.3,25.6,32.4,2.3,111
2010-03-01 16:55:05,21.5,-4.1,25.6,32.4,2.3,112
2010-03-01 17:00:05,21.4,-3.2,24.6,32.3,2.3,112
2010-03-01 17:05:05,21.4,-2.1,23.6,32.2,2.3,112
2010-03-01 17:10:05,21.2,-2.3,23.5,32.1,2.3,111
2010-03-01 17:15:05,21.1,-2.2,23.3,32.0,2.2,112
2010-03-01 17:20:05,21.0,-2.3,23.3,32.0,2.1,111
2010-03-01 17:25:05,21.0,-5.5,26.5,31.9,2.1,112
2010-03-01 17:30:05,21.1,-11.9,32.9,31.9,2.3,112
2010-03-01 17:35:05,21.0,-18.4,39.4,31.8,2.3,111
2010-03-01 17:40:05,20.8,-20.0,40.7,31.5,2.4,112
2010-03-01 17:45:05,20.4,-20.9,41.3,31.1,2.3,112
2010-03-01 17:50:05,20.1,-21.7,41.8,30.5,2.3,111
2010-03-01 17:55:05,19.8,-21.6,41.4,29.5,2.3,112
2010-03-01 18:00:05,19.6,-21.5,41.1,27.7,2.3,111
2010-03-01 18:05:05,19.5,-21.2,40.7,24.6,2.3,112
2010-03-01 18:10:05,19.5,-21.0,40.5,19.7,2.4,112
2010-03-01 18:15:05,19.3,-21.2,40.5,13.8,2.7,111
2010-03-01 18:20:05,19.2,-21.3,40.5,8.5,2.6,112
2010-03-01 18:25:05,19.0,-21.3,40.4,4.7,2.4,112
2010-03-01 18:30:05,18.8,-21.4,40.3,2.4,2.3,111
2010-03-01 18:35:05,17.9,-20.4,38.4,1.2,2.3,112
2010-03-01 18:40:05,18.3,-21.0,39.3,0.6,2.4,111
2010-03-01 18:45:05,18.4,-21.6,40.0,0.3,2.5,112
2010-03-01 18:50:05,18.3,-21.8,40.0,0.1,2.4,112
2010-03-01 18:55:05,18.1,-21.7,39.8,0.1,2.3,111
2010-03-01 19:00:05,18.0,-21.9,39.9,0.0,2.3,112
2010-03-01 19:05:05,17.8,-21.7,39.5,0.0,2.3,112
2010-03-01 19:10:05,17.7,-21.4,39.1,0.0,2.3,111
2010-03-01 19:15:05,17.4,-21.2,38.6,0.0,2.2,112
2010-03-01 19:20:05,17.3,-20.5,37.8,0.0,2.2,111
2010-03-01 19:25:05,17.4,-20.6,38.1,0.0,2.4,112
2010-03-01 19:30:05,17.4,-22.5,40.0,0.0,2.3,111
2010-03-01 19:35:05,17.3,-22.1,39.4,0.0,2.5,112
2010-03-01 19:40:05,17.5,-21.4,38.9,0.0,2.4,111
2010-03-01 19:45:05,17.7,-21.5,39.2,0.0,2.4,112
2010-03-01 19:50:05,18.1,-21.6,39.7,0.0,2.6,111
2010-03-01 19:55:05,17.8,-22.1,39.8,0.0,2.4,112
2010-03-01 20:00:05,18.1,-21.8,39.9,0.0,2.3,111
2010-03-01 20:05:05,18.0,-21.8,39.8,0.0,2.3,112
2010-03-01 20:10:05,18.0,-22.0,40.0,0.0,2.3,111
2010-03-01 20:15:05,18.0,-20.9,38.9,0.0,2.3,112
2010-03-01 20:20:05,18.1,-21.3,39.4,0.0,2.5,111
2010-03-01 20:25:05,18.2,-21.4,39.6,0.0,2.5,112
2010-03-01 20:30:05,18.3,-21.1,39.4,0.1,2.6,111
2010-03-01 20:35:05,18.4,-21.0,39.4,0.1,2.6,112
2010-03-01 20:40:05,18.5,-20.8,39.2,0.1,2.6,112
2010-03-01 20:45:05,18.5,-21.3,39.8,0.1,2.6,111
2010-03-01 20:50:05,18.4,-22.1,40.5,0.1,2.5,112
2010-03-01 20:55:05,18.3,-21.7,40.0,0.1,2.3,111
2010-03-01 21:00:05,18.5,-21.1,39.7,0.1,2.3,112
2010-03-01 21:05:05,18.6,-20.5,39.1,0.1,2.3,112
2010-03-01 21:10:05,18.5,-21.2,39.8,0.1,2.4,111
2010-03-01 21:15:05,18.4,-21.7,40.1,0.1,2.5,112
2010-03-01 21:20:05,18.4,-22.3,40.7,0.1,2.6,111
2010-03-01 21:25:05,18.4,-22.6,41.1,0.1,2.5,112
2010-03-01 21:30:05,18.4,-22.4,40.8,0.1,2.4,112
2010-03-01 21:35:05,18.5,-22.2,40.7,0.1,2.3,111
2010-03-01 21:40:05,18.6,-22.1,40.7,0.1,2.3,112
2010-03-01 21:45:05,18.6,-22.0,40.5,0.1,2.3,112
2010-03-01 21:50:05,18.2,-22.2,40.4,0.1,2.3,111
2010-03-01 21:55:05,18.6,-22.4,40.9,0.1,2.3,112
2010-03-01 22:00:05,18.7,-21.2,40.0,0.1,2.3,112
2010-03-01 22:05:05,18.5,-20.9,39.3,0.1,2.4,111
2010-03-01 22:10:05,18.9,-20.6,39.5,0.1,2.4,112
2010-03-01 22:15:05,18.9,-20.8,39.7,0.1,2.3,111
2010-03-01 22:20:05,18.9,-21.3,40.1,0.1,2.3,112
2010-03-01 22:25:05,18.7,-22.1,40.8,0.1,2.3,111
2010-03-01 22:30:05,18.6,-22.2,40.8,0.1,2.3,112
2010-03-01 22:35:05,18.6,-22.4,41.0,0.1,2.3,111
2010-03-01 22:40:05,18.6,-22.4,40.9,0.1,2.3,112
2010-03-01 22:45:05,18.5,-22.5,41.0,0.1,2.3,112
2010-03-01 22:50:05,18.5,-22.5,41.0,0.2,2.3,111
2010-03-01 22:55:05,18.5,-22.7,41.2,0.2,2.3,112
2010-03-01 23:00:05,18.5,-22.8,41.3,0.2,2.3,112
2010-03-01 23:05:05,18.4,-22.8,41.1,0.3,2.2,111
2010-03-01 23:10:05,18.4,-22.9,41.3,0.3,2.2,112
2010-03-01 23:15:05,18.4,-23.0,41.5,0.3,2.1,112
2010-03-01 23:20:05,18.4,-23.1,41.5,0.4,2.0,111
2010-03-01 23:25:05,18.3,-23.2,41.5,0.4,2.0,112
2010-03-01 23:30:05,18.1,-23.1,41.3,0.4,1.9,111
2010-03-01 23:35:05,18.2,-23.0,41.1,0.4,1.9,112
2010-03-01 23:40:05,18.2,-22.9,41.1,0.5,1.8,111
2010-03-01 23:45:05,18.1,-23.0,41.1,0.5,1.8,112
2010-03-01 23:50:05,18.1,-23.4,41.4,0.5,1.8,111
2010-03-01 23:55:05,18.1,-23.7,41.8,0.4,1.8,112
